Weather History for Seattle, WA

Change the Weather History Date:

Monday, November 27, 2006

  Actual Average Record
Temperature  
Mean Temperature 32 °F 43 °F  
Max Temperature 37 °F 48 °F 58 °F (2013)
Min Temperature 26 °F 38 °F 19 °F (1985)
Degree Days  
Heating Degree Days 33 22  
Month to date heating degree days 508 519  
Since 1 July heating degree days 1070 1116  
Cooling Degree Days 0 0  
Month to date cooling degree days 0 0  
Year to date cooling degree days 270 189  
Moisture  
Dew Point 28 °F    
Average Humidity 79    
Maximum Humidity 89    
Minimum Humidity 69    
Precipitation  
Precipitation 0.18 in 0.22 in 1.30 in (1996)
Month to date precipitation 15.26 5.91  
Year to date precipitation 40.75 31.48  
Snow  
Snow 1.60 in - 7.60 in (1985)
Month to date snowfall  
Since 1 July snowfall  
Snow Depth 2.00 in    
Sea Level Pressure  
Sea Level Pressure 29.75 in    
Wind  
Wind Speed 13 mph (WSW)    
Max Wind Speed 22 mph    
Max Gust Speed 28 mph    
Visibility 7 miles    
Events Fog , Snow , Thunderstorm    
T = Trace of Precipitation, MM = Missing Value Source: NWS Daily Summary

Daily Weather History Graph

Daily Weather History Graph

Search for Another Location

Airport:

Trip Planner

Search our weather history database for the weather conditions in past years. The results will help you decide how hot, cold, wet, or windy it might be!

Date:

Astronomy

Nov. 27, 2006 Rise Set
Actual Time 7:30 AM PST 4:22 PM PST
Civil Twilight 6:56 AM PST 4:57 PM PST
Nautical Twilight 6:18 AM PST 5:35 PM PST
Astronomical Twilight 5:41 AM PST 6:12 PM PST
Moon 12:54 PM PST (11/27) 11:28 PM PST (11/27)
Length of Visible Light 10h 01m
Length of Day
8h 51m
Waxing Crescent, 45% of the Moon is Illuminated
Nov 27
Waxing Crescent
Nov 27
First Quarter
Dec 4
Full
Dec 12
Last Quarter
Dec 20
New

Hourly Weather History & Observations

Time (PST) Temp. Windchill Dew Point Humidity Pressure Visibility Wind Dir Wind Speed Gust Speed Precip Events Conditions
12:53 AM 34.0 °F 23.4 °F 30.0 °F 85% 29.60 in 10.0 mi South 17.3 mph 23.0 mph N/A   Overcast
1:53 AM 34.0 °F 25.0 °F 30.0 °F 85% 29.62 in 10.0 mi South 12.7 mph - N/A   Overcast
2:53 AM 34.0 °F 24.6 °F 30.0 °F 85% 29.63 in 10.0 mi South 13.8 mph 21.9 mph N/A   Overcast
3:53 AM 34.0 °F 23.4 °F 28.9 °F 82% 29.64 in 10.0 mi SSW 17.3 mph 25.3 mph N/A   Overcast
4:08 AM 33.8 °F 23.5 °F 30.2 °F 87% 29.61 in 10.0 mi SSW 16.1 mph - N/A   Overcast
4:53 AM 33.1 °F 23.4 °F 30.0 °F 89% 29.65 in 10.0 mi South 13.8 mph - N/A   Overcast
5:53 AM 33.1 °F 23.9 °F 28.9 °F 85% 29.65 in 10.0 mi South 12.7 mph - N/A   Overcast
6:53 AM 33.1 °F 23.4 °F 28.0 °F 82% 29.67 in 10.0 mi South 13.8 mph 21.9 mph N/A   Mostly Cloudy
7:15 AM 33.8 °F 24.3 °F 28.4 °F 81% 29.64 in 10.0 mi SSW 13.8 mph - N/A   Mostly Cloudy
7:39 AM 33.8 °F 24.3 °F 28.4 °F 81% 29.64 in 10.0 mi SSW 13.8 mph - N/A   Mostly Cloudy
7:53 AM 32.0 °F 22.5 °F 28.0 °F 85% 29.68 in 10.0 mi South 12.7 mph - N/A   Mostly Cloudy
8:53 AM 33.1 °F 23.4 °F 28.9 °F 85% 29.70 in 10.0 mi SSW 13.8 mph - N/A   Mostly Cloudy
9:23 AM 33.8 °F 24.8 °F 28.4 °F 81% 29.67 in 10.0 mi South 12.7 mph - N/A   Overcast
9:53 AM 33.1 °F 24.9 °F 28.9 °F 85% 29.70 in 10.0 mi South 10.4 mph - N/A   Mostly Cloudy
10:53 AM 35.1 °F 25.2 °F 28.9 °F 78% 29.71 in 10.0 mi South 16.1 mph 19.6 mph N/A   Mostly Cloudy
11:53 AM 35.1 °F 25.9 °F 28.9 °F 78% 29.72 in 10.0 mi SW 13.8 mph - N/A   Mostly Cloudy
12:40 PM 35.6 °F 25.9 °F 30.2 °F 81% 29.69 in 10.0 mi SW 16.1 mph - N/A   Mostly Cloudy
12:53 PM 35.1 °F 26.4 °F 30.0 °F 82% 29.72 in 10.0 mi SW 12.7 mph - N/A   Mostly Cloudy
1:10 PM 33.8 °F 25.8 °F 30.2 °F 87% 29.69 in 0.2 mi SSW 10.4 mph - 0.00 in Fog , Snow Light Snow
1:14 PM 33.8 °F 27.0 °F 30.2 °F 87% 29.69 in 5.0 mi SSW 8.1 mph - 0.00 in Snow Light Snow
1:53 PM 36.0 °F 28.5 °F 30.0 °F 79% 29.72 in 10.0 mi SW 10.4 mph - 0.00 in   Mostly Cloudy
2:53 PM 37.0 °F 30.4 °F 28.0 °F 70% 29.73 in 10.0 mi SW 9.2 mph - N/A   Mostly Cloudy
3:49 PM 35.6 °F 28.0 °F 26.6 °F 70% 29.72 in 10.0 mi WSW 10.4 mph - N/A   Mostly Cloudy
3:53 PM 35.1 °F 26.4 °F 27.0 °F 72% 29.75 in 10.0 mi WSW 12.7 mph - N/A   Mostly Cloudy
4:53 PM 34.0 °F 26.6 °F 26.1 °F 73% 29.77 in 10.0 mi West 9.2 mph - N/A   Mostly Cloudy
5:53 PM 34.0 °F 24.6 °F 28.0 °F 79% 29.79 in 10.0 mi WSW 13.8 mph - N/A   Overcast
6:03 PM 32.0 °F 23.0 °F 28.4 °F 87% 29.76 in 3.0 mi NNW 11.5 mph 17.3 mph 0.02 in Snow Light Snow
6:11 PM 30.2 °F 20.8 °F 28.4 °F 93% 29.77 in 0.5 mi North 11.5 mph - 0.10 in Snow Light Snow
6:18 PM 30.2 °F 22.6 °F 28.4 °F 93% 29.77 in 2.0 mi North 8.1 mph - 0.11 in Snow Light Snow
6:28 PM 30.2 °F 23.4 °F 28.4 °F 93% 29.77 in 0.5 mi Variable 6.9 mph - 0.14 in Snow Light Snow
6:44 PM 30.2 °F 21.9 °F 28.4 °F 93% 29.78 in 0.5 mi North 9.2 mph - 0.15 in Fog , Snow Snow
6:53 PM 30.0 °F 20.5 °F 28.0 °F 92% 29.81 in 0.5 mi North 11.5 mph - 0.16 in Fog , Snow Snow
6:59 PM 30.2 °F 20.8 °F 28.4 °F 93% 29.78 in 0.5 mi North 11.5 mph - 0.00 in Snow , Thunderstorm Light Thunderstorms and Snow
7:09 PM 30.2 °F 24.3 °F 28.4 °F 93% 29.78 in 1.8 mi Variable 5.8 mph - 0.00 in Snow , Thunderstorm Light Thunderstorms and Snow
7:11 PM 30.2 °F 23.4 °F 28.4 °F 93% 29.78 in 2.0 mi NNW 6.9 mph - 0.00 in Snow , Thunderstorm Light Thunderstorms and Snow
7:25 PM 30.2 °F 21.3 °F 26.6 °F 86% 29.79 in 2.0 mi North 10.4 mph - 0.00 in Snow Light Snow
7:42 PM 30.2 °F 23.4 °F 26.6 °F 86% 29.80 in 9.0 mi North 6.9 mph - 0.00 in   Overcast
7:53 PM 30.0 °F 23.2 °F 27.0 °F 88% 29.83 in 10.0 mi North 6.9 mph - 0.02 in   Overcast
8:53 PM 28.9 °F 19.8 °F 26.1 °F 89% 29.86 in 4.0 mi NNE 10.4 mph - 0.00 in Snow Light Snow
9:14 PM 28.4 °F 18.5 °F 24.8 °F 86% 29.83 in 10.0 mi North 11.5 mph - 0.00 in   Overcast
9:34 PM 28.4 °F 18.5 °F 24.8 °F 86% 29.84 in 5.0 mi North 11.5 mph - 0.00 in Snow Light Snow
9:53 PM 28.0 °F 17.0 °F 24.1 °F 85% 29.88 in 3.0 mi NNE 13.8 mph - 0.00 in Snow Light Snow
10:06 PM 28.4 °F 17.0 °F 24.8 °F 86% 29.85 in 3.0 mi NNE 15.0 mph - 0.00 in Snow Light Snow
10:16 PM 28.4 °F 17.0 °F 23.0 °F 80% 29.86 in 4.0 mi NNE 15.0 mph - 0.00 in Snow Light Snow
10:53 PM 27.0 °F 15.2 °F 23.0 °F 85% 29.91 in 3.0 mi NNE 15.0 mph - 0.00 in Snow Light Snow
11:14 PM 26.6 °F 14.3 °F 23.0 °F 86% 29.89 in 6.0 mi NNE 16.1 mph - 0.00 in Snow Light Snow
11:53 PM 26.1 °F 14.0 °F 21.0 °F 81% 29.94 in 9.0 mi North 15.0 mph 23.0 mph 0.00 in   Overcast